Terminal Aerodrome Forecast
Issued by NWS

Home | Current Version | Previous Version | Text Only | Print | Product List | Glossary On
Versions: 1 2 3 4 5 6 7 8 9 10 11 12 13 14 15 16 17 18 19 20 21 22 23 24 25 26 27 28 29 30 31 32 33 34 35 36 37 38 39 40 41 42 43 44 45 46 47 48 49 50
000
FTUS42 KMFL 271747 AAA
TAFOPF
TAF AMD
KOPF 271747Z 2718/2818 17010KT P6SM VCTS SCT030CB SCT050 BKN250
      TEMPO 2719/2723 VRB15G25KT 3SM TSRA BKN025CB
     FM272300 19005KT P6SM VCTS SCT035CB SCT080 BKN250
     FM280300 VRB02KT P6SM VCSH SCT040 BKN250
     FM281400 14007KT P6SM FEW030 SCT050 BKN250=

USA.gov is the U.S. government's official web portal to all federal, state and local government web resources and services.